Ana Sayfa
METAR-TAF:

METAR-TAF

Havaalanları :

Guadalupe Dağları Ulusal Parkı

Pine Springs, Teksas, Amerika Birleşik Devletleri

Enlem: 31-49-52N, Boylam: 104-48-32W, yükseklik: 1661 m

Güncel hava durumu gözlemi

Rapor saat 00:51 UTC de 12 dakika önce yapıldı.
Rüzgar batı/güneybatıdan 25 kt
Sıcaklık 7°C
Nem 70%
Basınç 1021 hPa
Görüş mesafesi: 16.1 km
Açık gökyüzü

METAR: KGDP 130051Z AUTO 24025KT 10SM CLR 07/02 A3015 RMK AO2 PK WND 24030/0046 SLP196 T00720022

Saat: 19:03 (01:03 UTC)


TAF: eksik

4.000'den fazla havaalanı için hava durumu gözlemleri ve tahminleri (METAR ve TAF raporları).

Kullanılabilir istasyonlar harita üzerinde sarı ve kırmızı noktalarla gösterilir.

İstasyonun adını görmek için fareyi noktanın üzerinde gezdirin.

Sonrasında hava gözlem ve tahminlerini görmek için tıklayın.

Haritayı değiştirmek için: yaklaştırmak için siyah artı işaretli yeşil düğmeye ve uzaklaştırmak için de eksi işaretli düğmeye hızla tıklayın; bitişik haritalar için yeşil okları kullanın.


METAR-TAF: